Location: Newark
(33.6439°N, 114.9881°W)
Time: 10:37:27
(UTC+00:00)

Envisat - Pass Details

Date: 26 March 2019
Orbit: 764 x 766 km, 98.2° (Epoch: 24 April)

Event Time Altitude Azimuth Distance (km) Brightness Sun altitude
Rises 02:43:36 0° 179° (S) 3,217 6.1 -10.8°
Reaches altitude 10° 02:45:58 10° 185° (S) 2,294 5.4 -11.3°
Maximum altitude 02:50:52 50° 260° (W) 966 4.0 -12.3°
Drops below altitude 10° 02:55:48 10° 336° (NNW) 2,307 6.0 -13.3°
Sets 02:58:11 0° 342° (NNW) 3,237 6.7 -13.8°
